Location: Kalberh�ni
(46.4610°N, 7.2453°E)
Time: 12:11:28
(UTC+00:00)

ISS - Visible Passes

Search period start: 24 September 2021 00:00
Search period end: 04 October 2021 00:00
Orbit: 419 x 423 km, 51.6° (Epoch: 24 September)

Date Brightness Start Highest point End Pass type
(mag) Time Alt. Az. Time Alt. Az. Time Alt. Az.
24 Sep -2.4 19:01:16 10° WNW 19:04:21 32° N 19:05:32 25° NE visible
24 Sep -0.2 20:38:22 10° WNW 20:38:31 11° WNW 20:38:31 11° WNW visible
25 Sep -2.4 18:14:11 10° WNW 18:17:18 34° N 18:20:21 11° ENE visible
25 Sep -1.7 19:51:27 10° WNW 19:53:21 27° NW 19:53:21 27° NW visible
26 Sep -2.7 19:04:30 10° WNW 19:07:38 35° N 19:08:10 32° NNE visible
27 Sep -2.5 18:17:29 10° WNW 18:20:35 32° N 18:22:59 15° ENE visible
27 Sep -1.4 19:54:27 10° WNW 19:55:58 24° NW 19:55:58 24° NW visible
28 Sep -3.3 19:07:32 10° WNW 19:10:48 49° NNE 19:10:48 49° NNE visible
29 Sep -2.9 18:20:35 10° WNW 18:23:49 40° NNE 18:25:39 21° ENE visible
29 Sep -1.1 19:57:27 10° WNW 19:58:38 20° WNW 19:58:38 20° WNW visible
30 Sep -3.5 19:10:29 10° WNW 19:13:31 70° WNW 19:13:31 70° WNW visible
01 Oct -3.7 18:23:33 10° WNW 18:26:56 68° NNE 18:28:27 29° E visible
01 Oct -0.7 20:00:47 10° W 20:01:27 14° W 20:01:27 14° W visible
02 Oct -3.3 17:36:37 10° WNW 17:39:56 51° NNE 17:43:14 10° E visible
02 Oct -2.5 19:13:35 10° WNW 19:16:27 35° SW 19:16:27 35° SW visible
03 Oct -3.3 18:26:32 10° WNW 18:29:51 55° SSW 18:31:31 25° SE visible
